Hourly Data Report for October 02, 2017

All times are specified in Local Standard Time (LST). Add 1 hour to adjust for Daylight Saving Time where and when it is observed.

BERENS RIVER CS
MANITOBA

52°21'35.052" N
97°01'19.032" W
221.90 m
5030203
71158
WCF

Download Data

Hourly Data (October 2017)
Hourly Data Report for October 2, 2017
Temp Definition
°C
Dew Point Temp Definition
°C
Rel Hum Definition
%
Wind Dir Definition
10's deg

Wind Spd Definition
km/h
Visibility Definition
km
Stn Press Definition
kPa
Hmdx Definition


Wind Chill Definition


Weather Definition


TIME
00:00 13.2 12.4 95 12 7   97.62     LegendNANA
01:00 13.2 12.4 95 12 9   97.62     LegendNANA
02:00 13.6 12.6 94 16 11   97.71     LegendNANA
03:00 13.5 12.4 94 13 7   97.56     LegendNANA
04:00 13.3 12.5 95 9 9   97.57     LegendNANA
05:00 13.4 12.5 94 12 11   97.60     LegendNANA
06:00 13.3 12.6 95 10 10   97.58     LegendNANA
07:00 13.6 12.8 95 12 9   97.64     LegendNANA
08:00 13.8 13.0 95 11 11   97.61     LegendNANA
09:00 14.2 13.3 94 11 12   97.56     LegendNANA
10:00 14.5 13.5 94 13 12   97.55     LegendNANA
11:00 14.4 13.4 94 13 13   97.57     LegendNANA
12:00 14.4 13.3 93 14 13   97.57     LegendNANA
13:00 14.6 13.4 92 17 12   97.62     LegendNANA
14:00 13.7 12.0 90 18 18   97.67     LegendNANA
15:00 12.8 10.5 86 19 18   97.74     LegendNANA
16:00 12.8 9.8 82 17 16   97.79     LegendNANA
17:00 12.2 8.8 80 18 17   97.89     LegendNANA
18:00 11.8 8.8 82 18 11   98.00     LegendNANA
19:00 12.2 7.8 74 20 14   98.09     LegendNANA
20:00 11.7 6.6 71 22 15   98.17     LegendNANA
21:00 10.7 6.3 74 22 12   98.26     LegendNANA
22:00 10.7 6.3 75 22 13   98.32     LegendNANA
23:00 10.2 6.1 76 23 12   98.31     LegendNANA

Notes on Data Quality.

Legend

  • E = Estimated
  • M = Missing
  • NA = Not Available
  • ‡ = Partner data that is not subject to review by the National Climate Archives
Date modified: